Regional Weather Roundup
Issued by NWS Charleston, SC

Current Version | Previous Version | Graphics & Text | Print | Product List | Glossary On
Versions: 1 2 3 4 5 6 7 8 9 10 11 12 13 14 15 16 17 18 19 20 21 22 23 24 25 26 27 28 29 30 31 32 33 34 35 36 37 38 39 40 41 42 43 44 45 46 47 48 49 50
000
ASUS42 KCHS 062227
RWRCHS

REGIONAL WEATHER ROUNDUP
NATIONAL WEATHER SERVICE CHARLESTON SC
600 PM EDT WED MAY 06 2015

NOTE: "FAIR" INDICATES FEW OR NO CLOUDS BELOW 12,000 FEET WITH NO
SIGNIFICANT WEATHER AND/OR OBSTRUCTIONS TO VISIBILITY.

NOT ALL STATIONS ARE QUALITY CONTROLLED BY THE NATIONAL
WEATHER SERVICE. USE DATA WITH CAUTION...ESPECIALLY
DEWPOINT OBSERVATIONS.

SCZ027-030-031-034>040-042>050-062300-
...SOUTHEAST SOUTH CAROLINA...

CITY           SKY/WX    TMP DP  RH WIND       PRES   REMARKS
N CHARLESTON   PTSUNNY   76  53  44 NE12      30.09S
WATERFRONT PRK NOT AVBL
MOUNT PLEASANT FAIR      77  55  47 MISG      30.09S
PINOPOLIS      NOT AVBL
MONCKS CORNER  FAIR      79  57  47 NE10      30.08F
SUMMERVILLE    FAIR      79  57  47 E5        30.09F
BEAUFORT MCAS  PTSUNNY   75  63  66 SE8       30.08F
BEAUFORT ARPT  FAIR      73  63  68 E13G20    30.08F
HILTON HEAD IS PTSUNNY   73  64  73 NE12G18   30.10S
WALTERBORO     PTCLDY    77  55  47 E8        30.09S
ALLENDALE      FAIR      77  54  44 CALM      30.09F

...SOUTHERN MIDLANDS AND PEE DEE...

CITY           SKY/WX    TMP DP  RH WIND       PRES   REMARKS
GEORGETOWN     NOT AVBL
KINGSTREE      NOT AVBL
ORANGEBURG     MOSUNNY   81  47  30 E6        30.10F
BARNWELL       FAIR      81  52  36 E6        30.10F
AIKEN          FAIR      77  46  33 E6        30.14S
MANNING        FAIR      79  50  36 NE8       30.09F
COLUMBIA       PTSUNNY   82  49  31 E12       30.10S
SUMTER         MOSUNNY   81  47  29 NE6       30.09S
FLORENCE       MOSUNNY   81  48  31 E13       30.10F
MYRTLE BEACH   MOSUNNY   73  57  56 E15       30.13F
N MYRTLE BEACH CLOUDY    74  55  51 E12       30.12S

$$

GAZ063-065-086>088-099>101-113>116-118-119-134>141-150-062300-
...SOUTHEAST GEORGIA...

CITY           SKY/WX    TMP DP  RH WIND       PRES   REMARKS
SAVANNAH ARPT  CLOUDY    76  59  55 E8        30.09S
HUNTER AAF     PTSUNNY   76  60  57 E14       30.07S
FORT STEWART   PTSUNNY   76  63  63 E12       30.07S
STATESBORO       N/A     78  57  47 CALM      30.09S
SYLVANIA       MOCLDY    77  58  51 NE3       30.11S
CLAXTON        FAIR      79  57  47 N3        30.09S

...CSRA...CENTRAL AND FAR SOUTHEAST GEORGIA...

CITY           SKY/WX    TMP DP  RH WIND       PRES   REMARKS
THOMSON        SUNNY     82  56  39 E6        30.15S
AUGUSTA-BUSH   PTSUNNY   79  52  38 E6        30.10S
AUGUSTA-DANIEL PTSUNNY   82  51  34 E9        30.11S
SWAINSBORO     FAIR      82  32  16 SE12      30.10S
VIDALIA        MOSUNNY   79  59  50 E7        30.09S
EASTMAN        FAIR      83  55  38 E5        30.11S
HAZLEHURST     FAIR      80  61  52 E5        30.07F
ALMA           PTSUNNY   77  60  55 NE7       30.08F
WAYCROSS       MOSUNNY   81  66  60 E10       30.08S
JESUP          CLOUDY    79  66  65 E7        30.08F
BAXLEY         CLOUDY    79  63  57 SE6       30.08F
BRUNSWICK      PTSUNNY   77  63  61 NE12G20   30.09S
SAINT SIMONS   PTSUNNY   73  63  70 NE15      30.08S

$$

SCZ027-028-034-036>038-045-046-048>050-GAZ119-141-062300-
...LAKE AND SUPPLEMENTAL COASTAL OBSERVATIONS...

STATION/POSITION TIME  TEMP    WIND        PRES    WAVE   SWELL
                       AIR SEA DIR/SP/G            HT/PER HT/PER/DIR
                 (UTC) (F)     (DEG/KT/KT) (MB)    (FT/S) (FT/S/D)
UPR LAKE MARION  NOT AVBL
WINYAH BAY       2145   72      60/ 13     1019.0S
LAKE MURRAY      2100   79      50/  3/  7 1019.0F
ACE BASIN NERRS  NOT AVBL
FORT PULASKI     2100           50/ 14/ 16 1019.6F
SAPELO ISLAND    2200   74      50/ 11     1019.0S

$$

ANZ835-935-AMZ111-154-330-350-352-354-370-450-454-472-062300-
...C-MAN AND BUOY OBSERVATIONS...

STATION/POSITION TIME  TEMP    WIND        PRES    WAVE   SWELL
                       AIR SEA DIR/SP/G            HT/PER HT/PER/DIR
                 (UTC) (F)     (DEG/KT/KT) (MB)    (FT/S) (FT/S/D)
BUOY 41004       2150   71 73   30/ 21/ 25 1017.6S   8/ 8   5/ 8
BUOY 41008       2150   71 70   50/ 14/ 17 1018.5F   6/ 8   5/100/ 8
FOLLY BEACH CMAN 2200   72      60/ 19/ 21 1019.1F
CAPERS NEARSHORE 2108   72      60/ 17/ 23 1019.5S
FRIPP NEARSHORE  2100   72      70/ 19/ 23 1018.3F


STATION/POSITION TIME  TEMP    WIND        PRES    WAVE   SWELL
                       AIR SEA DIR/SP/G            HT/PER HT/PER/DIR
                 (UTC) (F)     (DEG/KT/KT) (MB)    (FT/S) (FT/S/D)
5E ST. MARYS GA  2121      71                N/A     5/ 9
FRYING PAN BUOY  2150   73 71   70/ 17/ 19 1019.3S   7/ 8
BUOY 41025       2150   71 74  100/ 14/ 17 1020.9F   4/ 8   2/120/ 8
CAPE LOOKOUT NC  2200   69      60/  8/  9 1020.3S
BUOY 41002       2150   70 70  130/ 12/ 16 1016.6R   8/ 7   7/100/ 7
BUOY 41010       2120   73 78  350/ 21/ 23 1014.4S
ST AUGUSTINE FL  2200   71 73  360/ 19/ 21 1018.5R


$$



USA.gov is the U.S. government's official web portal to all federal, state and local government web resources and services.